Skip Page Navigation
NASA JPL Caltech
NASA Logo - Jet Propulsion Laboratory + View the NASA Portal
+ Center for Near-Earth Object Studies
JPL Home Earth Solar System Stars & Galaxies Technology
JPL Solar System Dynamics
BODIES ORBITS EPHEMERIDES TOOLS PHYSICAL DATA DISCOVERY FAQ SITE MAP
IMPORTANT: The SSD Announcement email list is now available. Major changes are coming in the near future, including possible hostname and/or URL changes. To be notified of such changes, subscribe to this email list.

Please visit this page for more details.


JPL Small-Body Database Browser
Search: [ help ]  
344367 (2001 XZ123)
Classification: Main-belt Asteroid          SPK-ID: 2344367
Ephemeris | Orbit Diagram | Orbital Elements | Mission Design | Physical Parameters | Discovery Circumstances | Close-Approach Data ]

[ show orbit diagram ]
Orbital Elements at Epoch 2458600.5 (2019-Apr-27.0) TDB
Reference: JPL 7 (heliocentric ecliptic J2000)
 Element Value Uncertainty (1-sigma)   Units 
e .1736737022626468 7.9246e-08  
a 3.107683188914632 4.0786e-08 au
q 2.56796034403644 2.5793e-07 au
i 1.932107228604496 8.7121e-06 deg
node 119.4950659530038 0.00029856 deg
peri 301.7958280899232 0.00030274 deg
M 65.86343287970234 4.2338e-05 deg
tp 2458234.403651898685
(2018-Apr-25.90365190)
0.00023279 TDB
period 2001.02969969987
5.48
3.9393e-05
1.079e-07
d
yr
n .1799073747151257 3.5417e-09 deg/d
Q 3.647406033792824 4.787e-08 au
  Orbit Determination Parameters
   # obs. used (total)      132  
   data-arc span      6755 days (18.49 yr)  
   first obs. used      2000-07-29  
   last obs. used      2019-01-26  
   planetary ephem.      DE431  
   SB-pert. ephem.      SB431-N16  
   condition code      0  
   norm. resid. RMS      .65278  
   source      ORB  
   producer      Otto Matic  
   solution date      2019-Jul-13 15:57:01  

Additional Information
 Earth MOID = 1.58119 au 
 Jupiter MOID = 1.68726 au 
 T_jup = 3.196 
[ show covariance matrix ]

Ephemeris | Orbit Diagram | Orbital Elements | Mission Design | Physical Parameters | Discovery Circumstances | Close-Approach Data ]

Physical Parameter Table
Parameter Symbol Value Units Sigma Reference Notes
absolute magnitude H 16.5   n/a MPO423288  

344367 (2001 XZ123)          Discovered 2001-Dec-14 by LINEAR at Socorro
Reference: 20121128/Numbers.arcLast Updated: 2012-12-03

[ show close-approach data ]
Alternate Designations
 2001 XZ123 = 2006 SE134 
Ephemeris | Orbit Diagram | Orbital Elements | Mission Design | Physical Parameters | Discovery Circumstances | Close-Approach Data ]
ABOUT SSD CREDITS/AWARDS PRIVACY/COPYRIGHT GLOSSARY LINKS
FirstGov 2019-Dec-10 06:29 UT
(server date/time)  
NASA Home Page
Site Manager:   Ryan S. Park
Webmaster  Alan B. Chamberlin